Wind_Speed
31 30 29 27 26 25 23 21 20 18 17 16 16 16 16 17 17 17 17 17 18 19 20 21 22 23 22 21 22 23 24 24 24 24 25 25 25 25
33 32 32 31 30 28 27 25 24 22 20 19 18 17 17 16 17 18 18 18 19 20 21 22 22 23 22 23 23 24 24 24 25 25 25 26 25 25
33 33 33 33 32 31 29 27 25 24 23 23 22 21 20 19 19 19 19 19 19 20 21 22 22 22 23 23 23 23 23 23 24 25 25 26 25 25
34 35 35 36 35 34 32 30 28 27 25 25 25 24 22 21 20 20 20 20 19 20 21 22 22 22 23 23 21 21 21 22 23 25 27 27 27 27
35 35 36 36 35 35 34 34 32 30 28 27 26 24 22 20 20 21 21 20 19 20 21 23 23 22 22 22 20 20 19 20 23 26 28 29 29 28
33 33 34 34 33 33 33 34 34 32 30 28 26 24 22 21 21 21 20 20 19 20 21 23 23 22 21 20 19 18 18 19 22 25 27 28 28 29
29 29 30 31 31 31 32 33 33 32 30 28 25 24 23 21 20 21 21 20 21 21 22 23 22 21 20 19 17 16 17 18 20 22 24 23 22 22
28 29 29 29 29 29 31 32 32 31 29 26 25 24 23 21 21 22 22 22 23 24 24 23 22 21 20 18 17 16 16 17 17 18 18 16 14 12
29 29 29 28 28 28 30 30 30 29 28 26 25 25 25 23 22 21 21 23 25 25 25 24 22 21 20 20 19 18 17 17 16 14 13 11 9 6
28 29 29 29 28 28 29 29 29 29 28 27 27 27 27 25 24 22 21 23 25 25 25 24 23 22 22 21 20 19 18 17 16 14 12 10 8 6
27 28 28 30 30 30 30 30 30 30 29 28 28 28 28 27 26 25 24 23 24 24 25 24 23 22 22 22 21 20 19 18 17 17 15 12 10 8
26 28 28 30 32 32 32 32 32 32 31 31 31 31 30 29 28 27 26 25 25 25 25 24 24 23 23 22 22 21 20 19 19 19 18 16 13 12
25 26 28 30 32 33 34 34 34 34 34 33 34 33 32 30 30 30 30 29 28 27 26 26 26 25 25 24 23 22 21 21 21 21 21 19 18 17
23 24 27 30 31 33 34 35 36 36 37 36 35 34 33 33 33 33 33 33 31 30 30 30 29 28 27 26 25 24 23 23 24 24 24 23 22 21
23 23 24 27 29 30 31 32 33 35 37 37 36 35 35 35 35 35 35 34 32 32 33 34 33 31 29 28 27 27 26 26 26 27 26 26 25 25
23 23 23 24 25 25 26 28 29 30 32 32 33 34 35 36 36 36 37 36 35 34 35 36 35 33 31 30 30 30 29 29 28 28 28 28 28 28
22 22 22 21 21 21 21 23 25 25 26 27 29 31 33 35 36 37 37 37 36 35 35 36 35 34 33 32 33 32 31 31 30 29 29 30 30 31
22 22 21 20 20 19 20 21 23 25 28 29 30 32 34 35 37 38 38 37 37 37 37 37 36 36 35 35 35 34 32 32 31 31 31 32 33 34
21 22 22 22 21 21 21 22 23 24 26 28 30 31 33 34 35 36 36 37 37 39 40 40 40 38 38 37 36 33 32 33 34 34 33 34 35 37
20 20 21 22 23 23 24 25 26 27 28 28 29 29 30 31 32 33 35 36 37 39 42 43 43 42 41 38 35 33 33 34 34 35 35 36 37 39
19 20 21 23 24 26 27 28 29 30 30 30 30 30 29 29 29 31 32 34 37 41 44 44 42 40 38 36 33 33 33 33 34 35 37 38 39 40
18 19 21 23 25 26 28 30 31 32 32 32 32 31 30 29 30 30 30 31 33 37 39 39 36 34 32 31 31 32 33 33 34 36 38 40 41 43
15 17 18 19 21 22 24 26 28 30 31 32 32 32 31 30 30 30 30 29 29 31 32 32 32 32 32 31 32 33 34 35 36 38 40 42 44 46
Wind_Direction
234 235 237 240 242 242 242 244 249 254 250 245 244 244 243 244 248 252 256 260 261 262 261 260 258 257 259 266 273 277 281 281 279 278 277 276 274 269
236 237 239 241 243 244 244 245 248 252 253 248 245 245 247 249 253 257 259 262 264 264 264 261 259 258 262 270 274 278 279 278 278 279 280 280 276 270
237 239 240 241 243 243 243 243 244 248 251 250 248 248 249 252 257 260 261 262 264 265 265 264 261 262 268 273 274 276 276 277 280 283 285 284 278 268
241 242 242 243 244 243 242 241 241 244 249 253 252 251 253 254 256 259 261 262 264 266 267 267 266 268 271 272 273 275 276 280 285 288 289 286 278 265
243 244 244 245 243 242 241 240 240 243 249 253 254 252 252 252 255 256 258 260 263 265 267 268 267 269 270 270 271 274 276 282 288 291 292 288 278 263
242 243 243 242 240 239 239 238 238 241 246 250 252 250 250 253 253 253 255 257 261 265 267 267 268 269 269 267 268 271 276 283 290 294 295 292 281 265
240 240 240 238 237 236 234 234 236 238 242 245 247 247 250 250 249 248 251 255 259 264 267 266 267 268 266 264 266 270 276 283 290 295 299 295 285 270
241 240 238 237 235 232 231 232 234 235 237 241 242 243 245 246 247 248 252 256 260 261 263 264 265 265 264 265 267 269 274 279 284 292 297 297 286 271
240 238 235 235 233 230 229 229 230 231 234 237 239 240 243 245 248 251 254 257 258 257 259 261 262 263 264 266 267 269 271 273 274 280 286 287 286 273
242 240 238 236 232 230 229 229 229 232 234 235 236 237 240 244 247 250 256 259 257 254 255 257 259 262 264 267 267 268 268 268 265 264 268 268 265 260
246 243 240 236 232 231 231 230 231 232 233 234 235 238 242 245 248 251 255 258 258 255 254 255 258 262 265 266 266 265 265 264 260 257 256 256 251 246
246 244 242 240 236 233 232 233 234 234 234 234 236 238 241 245 248 251 254 257 257 255 254 255 258 262 263 264 264 263 261 259 257 254 252 250 250 250
247 245 245 243 240 238 236 235 236 236 236 235 236 239 242 246 248 250 254 255 257 256 255 255 257 259 260 261 261 261 259 256 254 252 251 249 249 250
249 250 250 247 244 241 239 238 236 236 233 232 235 238 242 245 247 250 253 255 258 259 256 254 255 256 257 258 259 259 257 255 254 253 251 249 248 248
251 255 256 256 252 245 240 236 232 231 229 231 234 238 242 245 248 252 255 256 259 259 256 252 251 253 254 255 256 258 257 256 255 255 254 253 252 250
251 255 258 259 258 254 243 234 230 231 232 234 238 242 245 248 251 255 257 257 259 260 257 252 250 251 254 255 254 254 256 257 258 257 259 260 259 257
248 251 254 258 262 262 252 242 239 239 240 243 246 248 249 252 255 258 258 257 257 258 257 254 252 253 254 254 255 254 255 257 260 261 262 262 262 262
247 248 250 254 258 259 257 253 249 248 248 249 251 253 254 256 258 259 258 256 255 255 256 256 256 256 257 255 255 255 255 258 260 261 262 263 265 265
247 248 250 253 256 258 258 256 255 254 254 254 254 255 256 257 258 257 256 255 255 255 255 257 258 258 259 256 255 255 255 256 257 259 261 263 266 269
249 251 254 257 260 261 261 260 259 258 257 256 255 256 256 256 255 254 253 254 254 254 252 254 258 258 258 256 254 252 253 256 260 262 263 263 265 268
253 256 260 262 265 266 265 264 263 261 259 257 256 255 255 254 253 251 251 255 253 252 248 250 255 258 260 256 252 251 253 257 261 263 264 266 267 269
261 263 267 270 270 269 268 267 265 263 261 258 256 254 253 251 250 250 252 255 253 248 245 247 252 259 262 261 255 254 257 259 260 262 264 268 271 274
269 272 275 278 277 275 273 271 267 264 261 258 255 252 250 249 248 247 248 251 251 246 246 250 255 260 262 265 264 262 262 264 264 265 267 270 273 276
Height
5814 5817 5820 5823 5825 5827 5829 5831 5833 5834 5836 5838 5839 5841 5842 5843 5845 5846 5847 5848 5849 5850 5851 5852 5852 5853 5853 5854 5853 5853 5852 5851 5851 5851 5852 5852 5852 5852
5808 5811 5814 5816 5819 5822 5824 5826 5827 5829 5831 5832 5835 5836 5837 5839 5840 5841 5842 5843 5844 5845 5846 5846 5846 5847 5847 5847 5847 5846 5845 5844 5845 5845 5845 5845 5844 5844
5800 5804 5806 5809 5812 5815 5817 5820 5822 5823 5825 5826 5828 5831 5832 5834 5834 5836 5837 5838 5839 5839 5840 5840 5841 5841 5841 5840 5840 5839 5838 5838 5838 5838 5838 5837 5837 5836
5793 5796 5799 5801 5804 5807 5810 5813 5815 5817 5819 5820 5822 5824 5826 5828 5829 5830 5831 5832 5833 5834 5834 5835 5835 5835 5835 5834 5833 5833 5832 5832 5832 5831 5831 5830 5829 5829
5785 5788 5790 5793 5796 5799 5802 5805 5808 5810 5812 5814 5816 5818 5820 5822 5823 5824 5826 5827 5828 5828 5829 5829 5829 5829 5829 5828 5827 5827 5827 5827 5826 5825 5824 5822 5821 5821
5777 5779 5782 5785 5788 5791 5794 5797 5800 5803 5805 5808 5810 5812 5814 5815 5817 5818 5820 5821 5823 5823 5824 5824 5823 5823 5823 5823 5823 5822 5822 5822 5821 5819 5817 5815 5812 5811
5769 5771 5774 5777 5780 5783 5786 5789 5792 5796 5798 5801 5803 5805 5807 5809 5811 5813 5814 5816 5817 5818 5818 5818 5818 5817 5818 5818 5818 5817 5817 5817 5816 5814 5812 5809 5806 5804
5761 5764 5767 5769 5772 5775 5779 5782 5785 5789 5792 5795 5797 5799 5801 5803 5806 5808 5809 5810 5811 5812 5812 5813 5812 5812 5812 5812 5812 5812 5813 5812 5812 5810 5809 5806 5803 5801
5754 5757 5760 5763 5766 5768 5772 5775 5779 5782 5786 5789 5791 5793 5795 5797 5800 5802 5803 5803 5804 5805 5806 5807 5807 5807 5807 5807 5807 5807 5808 5808 5808 5807 5806 5805 5802 5800
5748 5750 5753 5756 5759 5762 5765 5769 5772 5776 5779 5782 5784 5786 5788 5791 5794 5796 5797 5797 5797 5798 5799 5801 5801 5802 5802 5801 5801 5802 5802 5803 5803 5804 5804 5803 5802 5800
5741 5744 5746 5749 5752 5755 5758 5762 5765 5768 5771 5774 5777 5779 5782 5784 5786 5789 5790 5790 5791 5792 5793 5794 5795 5796 5796 5796 5796 5797 5797 5798 5798 5799 5800 5800 5799 5799
5735 5737 5739 5742 5744 5747 5750 5754 5757 5760 5764 5767 5769 5772 5774 5777 5779 5781 5783 5784 5784 5786 5787 5788 5789 5790 5790 5791 5791 5791 5792 5792 5794 5795 5796 5796 5796 5796
5729 5731 5733 5734 5737 5739 5742 5745 5748 5752 5755 5758 5761 5764 5767 5770 5772 5774 5775 5776 5778 5780 5782 5782 5783 5783 5784 5785 5786 5786 5787 5788 5789 5790 5791 5791 5792 5792
5723 5724 5726 5727 5729 5731 5733 5736 5739 5742 5746 5750 5753 5756 5759 5762 5764 5765 5767 5768 5771 5773 5774 5775 5776 5777 5778 5779 5780 5780 5781 5782 5784 5785 5786 5787 5787 5788
5717 5718 5720 5721 5722 5723 5725 5728 5731 5734 5737 5741 5744 5747 5750 5752 5754 5757 5758 5760 5762 5764 5765 5767 5769 5770 5771 5772 5773 5774 5775 5776 5778 5779 5781 5782 5782 5783
5711 5713 5714 5715 5716 5717 5718 5721 5723 5726 5729 5732 5736 5739 5741 5744 5746 5748 5749 5751 5753 5754 5756 5758 5760 5762 5763 5765 5766 5767 5768 5770 5771 5773 5774 5775 5776 5777
5706 5707 5709 5710 5711 5712 5713 5715 5717 5719 5722 5725 5728 5730 5733 5735 5737 5739 5740 5742 5744 5745 5747 5749 5751 5753 5755 5757 5758 5759 5761 5762 5764 5766 5768 5768 5769 5769
5700 5702 5704 5705 5706 5707 5708 5709 5711 5713 5715 5718 5720 5722 5724 5726 5727 5729 5730 5732 5735 5736 5738 5740 5742 5744 5746 5748 5749 5751 5753 5754 5756 5758 5759 5760 5760 5761
5695 5696 5698 5699 5700 5701 5702 5704 5705 5706 5708 5710 5711 5713 5714 5716 5717 5719 5720 5722 5725 5726 5728 5730 5732 5735 5737 5738 5740 5743 5744 5745 5746 5748 5749 5751 5751 5751
5689 5691 5692 5693 5694 5694 5695 5696 5697 5698 5699 5701 5702 5703 5705 5706 5707 5709 5711 5713 5714 5715 5717 5719 5722 5724 5727 5728 5730 5732 5733 5734 5736 5738 5740 5740 5741 5741
5684 5685 5686 5686 5686 5687 5687 5687 5688 5689 5690 5691 5693 5694 5695 5696 5698 5700 5702 5703 5703 5705 5706 5709 5711 5714 5716 5718 5720 5721 5722 5725 5727 5727 5728 5729 5729 5729
5680 5680 5680 5680 5679 5679 5678 5678 5678 5678 5679 5681 5682 5684 5686 5688 5689 5691 5693 5694 5695 5696 5698 5701 5703 5706 5707 5708 5709 5710 5712 5714 5715 5716 5716 5717 5716 5715
5675 5675 5674 5673 5672 5671 5670 5669 5668 5668 5669 5670 5672 5674 5677 5679 5681 5683 5685 5686 5687 5689 5691 5693 5695 5697 5698 5699 5700 5701 5702 5703 5704 5705 5705 5704 5703 5702